SAC C

Satellite information

Favourite Embed

Satellite Type and Status

PAYLOADIN ORBIT

Key statistics

Satellite SAC C at a glance.

Uptime

9102

Days in orbit

Revolutions

≈ 14.6

Per day

Orbit

SSO

Sun Synchronous Orbit

Inclination

98.5

Latest

Satellite identification and parameters

Extended collection of information and parameters for SAC C.

Object identification

Identified? True

Debris? False

Object name: SAC C

International designator: 2000-075B

Object number (NORAD): 26620

Object ID (CCSDS): 26620

Country: ARGENTINA (ARGN)

Current information (Y/N): Y

RCS size: LARGE

Orbital parameters

Period: 98.46 minutes

Inclination: 98.4992 deg

SMA: 7063.161 km

Apoapsis: 686.098 km

Periapsis: 683.954 km

RAAN: 295.3682 deg

Eccentricy: 0.00015173

Argument of periapsis: 78.9068 deg

Mean anomaly: 281.2304 deg

Mean motion: 14.6252768 rev/day

Mean motion (dot): 0.00001144 rev/day2

B* drag term: 0.00023546273 1/REarth

Two-line elements (TLE)

Creation date: Oct. 23, 2025, 2:46 a.m.

Reference frame: TEME

Reference center: EARTH

Epoch: Oct. 22, 2025, 12:10 p.m. UTC

TLE line 0: 0 SAC C

TLE line 1: 1 26620U 00075B 25295.50754638 .00001144 00000-0 23546-3 0 9992

TLE line 2: 2 26620 98.4992 295.3682 0001517 78.9068 281.2304 14.62527680326075

Live tracking on map

Real-time ground track for satellite SAC C.

In-orbit conjunctions

A list of the most updated potential collisions computed for object SAC C.

Target Orbit TCA Probability of collision Miss distance Type
FENGYUN 1C DEB SSO 2025-10-13 20:29:08 0.000169009 45.0 (m) DEBRIS
NOAA 16 DEB SSO 2025-10-12 22:53:31 0.0001614711 248.0 (m) DEBRIS
DELTA 1 DEB SSO 2025-07-16 19:33:23 0.0003046443 697.0 (m) DEBRIS
IRIDIUM 33 DEB LEO 2025-04-02 09:47:32 0.0001017533 906.0 (m) DEBRIS
CZ-2C DEB SSO 2025-02-11 22:13:18 0.0001939805 764.0 (m) DEBRIS

Associated space launch

EO 1 and SAS C are American and Argentinian Earth-imaging satellites.

SAC C was lifted into orbit during the mission ‘Delta II | EO 1 & SAC C’, on board a Delta II space rocket.

The launch took place on Nov. 21, 2000, 6:24 p.m. from Space Launch Complex 2W.

For more information about the launch, click the button.

Launch to space Delta II | EO 1 & SAC C
Delta II | EO 1 & SAC C

Agency: N/A

Status: Launch Successful

Launch date: Nov. 21, 2000, 6:24 p.m. UTC

Rocket: Delta II

Launch pad: Space Launch Complex 2W

Location: Vandenberg SFB, CA, USA

...

Latest news about this satellite

There are no fresh news available about this satellite. Check back as we update our databases every day.


Newsletter sign-up

Weekly statistics, charts and insights to help you stay on top of the space industry.